Cloud_Cover
0 0 0 0 0 0 0 0 0 0 0 0 0 0 6 11 11 48 95 86 0 5
0 0 0 0 0 0 0 0 0 0 0 0 0 11 99 76 35 59 32 91 95 44
0 0 0 0 0 0 0 0 0 0 0 0 0 6 54 99 78 33 93 84 96 98
0 0 0 0 0 0 0 0 0 0 0 0 1 4 5 60 100 94 32 70 63 78
0 0 0 0 0 0 0 0 0 0 0 0 0 4 0 2 72 100 97 30 53 91
0 0 0 0 0 0 0 0 1 1 5 5 5 3 0 0 2 24 85 100 84 33
0 0 0 0 0 0 0 0 0 0 5 5 2 5 5 2 4 2 0 67 96 6
0 0 0 0 0 0 0 3 2 4 8 12 26 5 5 5 5 5 8 98 100 58
0 0 0 0 0 0 0 1 0 10 10 99 26 27 7 0 0 0 0 97 99 68
0 0 0 0 0 0 0 1 18 15 100 70 56 5 36 8 0 0 8 30 64 51
0 0 0 0 0 0 0 11 59 86 73 100 100 66 100 3 10 83 100 98 59 92
0 0 0 0 0 0 5 80 100 100 100 100 98 18 76 5 71 100 85 100 100 94
5 5 0 0 30 21 37 90 100 99 100 100 100 100 88 40 99 44 3 5 4 5
5 5 0 7 75 100 85 100 100 100 98 100 100 100 100 100 87 12 25 94 0 7